Location: Newark
(48.6461°N, 4.3644°W)
Time: 23:11:24
(UTC+00:00)

S-56A Canister/Altair - Pass Details

Date: 26 January 2020
Orbit: 633 x 2499 km, 38.9° (Epoch: 23 February)

Event Time Altitude Azimuth Distance (km) Brightness Sun altitude
Rises 22:09:29 0° 251° (WSW) 3,650 11.3 -48.8°
Enters shadow 22:10:08 - 250° (WSW) 3,410 11.2 -48.9°
Reaches altitude 10° 22:12:44 10° 240° (WSW) 2,458 - -49.2°
Maximum altitude 22:17:19 27° 184° (S) 1,337 - -49.8°
Drops below altitude 10° 22:21:11 10° 125° (SE) 2,041 - -50.3°
Sets 22:23:37 0° 112° (ESE) 2,916 - -50.7°
